,,Stat5,,Stat1,,Stat2,,Stat3,,Stat4,,Wind1,,Wind1,
time,status,PA1M_AVG,status,PR1M_SUM,status,RH1M_AVG,status,SR1M_AVG,status,TA1M_AVG,status,W1dAve1m,status,W1sAve1m,
2002-09-14, 00:00:01,VALID,921.03,VALID,0,VALID,99.0287,VALID,-0.0339617,VALID,19.1778,VALID,137,VALID,0.929476,
2002-09-14, 00:01:01,VALID,921.017,VALID,0,VALID,99.058,VALID,-0.0509425,VALID,19.1907,VALID,140,VALID,0.938101,
2002-09-14, 00:02:00,VALID,921.002,VALID,0,VALID,99.058,VALID,-0.0169808,VALID,19.2011,VALID,125,VALID,0.628801,
2002-09-14, 00:03:00,VALID,921.003,VALID,0,VALID,99.0733,VALID,-0.0339617,VALID,19.1976,VALID,123,VALID,0.616425,
2002-09-14, 00:04:00,VALID,920.992,VALID,0,VALID,99.0987,VALID,-0.0169808,VALID,19.2043,VALID,141,VALID,0.770759,
2002-09-14, 00:05:01,VALID,920.989,VALID,0,VALID,99.1292,VALID,-0.0339617,VALID,19.2163,VALID,144,VALID,0.875411,
2002-09-14, 00:06:00,VALID,920.983,VALID,0,VALID,99.1534,VALID,-0.0169808,VALID,19.2391,VALID,141,VALID,0.613692,
2002-09-14, 00:07:01,VALID,920.972,VALID,0,VALID,99.1534,VALID,-0.0339617,VALID,19.249,VALID,139,VALID,0.641493,
2002-09-14, 00:08:01,VALID,920.966,VALID,0,VALID,99.1546,VALID,0,VALID,19.2391,VALID,131,VALID,0.405016,
2002-09-14, 00:09:00,VALID,920.956,VALID,0,VALID,99.1381,VALID,0,VALID,19.2195,VALID,112,VALID,0.66875,
2002-09-14, 00:10:01,VALID,920.939,VALID,0,VALID,99.1419,VALID,-0.0509425,VALID,19.22,VALID,116,VALID,0.485754,
2002-09-14, 00:11:01,VALID,920.93,VALID,0,VALID,99.1521,VALID,-0.0679233,VALID,19.2103,VALID,119,VALID,0.530222,
2002-09-14, 00:12:01,VALID,920.916,VALID,0,VALID,99.1534,VALID,-0.0509425,VALID,19.1974,VALID,130,VALID,0.409152,
2002-09-14, 00:13:01,VALID,920.906,VALID,0,VALID,99.1648,VALID,-0.0509425,VALID,19.1941,VALID,128,VALID,0.506027,
2002-09-14, 00:14:01,VALID,920.903,VALID,0,VALID,99.161,VALID,-0.0679233,VALID,19.1909,VALID,112,VALID,0.452724,
2002-09-14, 00:15:01,VALID,920.897,VALID,0,VALID,99.1661,VALID,-0.0679233,VALID,19.178,VALID,102,VALID,0.282858,
2002-09-14, 00:16:01,VALID,920.884,VALID,0,VALID,99.1775,VALID,-0.0169808,VALID,19.1676,VALID,102,VALID,0.288393,
2002-09-14, 00:17:01,VALID,920.868,VALID,0,VALID,99.1686,VALID,0.0849042,VALID,19.1539,VALID,112,VALID,0.44043,
2002-09-14, 00:18:01,VALID,920.85,VALID,0,VALID,99.1763,VALID,0.101885,VALID,19.1276,VALID,120,VALID,0.239063,
2002-09-14, 00:19:01,VALID,920.828,VALID,0,VALID,99.1686,VALID,0.0679233,VALID,19.1279,VALID,132,VALID,0.423713,
2002-09-14, 00:20:01,VALID,920.81,VALID,0,VALID,99.1979,VALID,0.101885,VALID,19.1216,VALID,146,VALID,0.924342,
2002-09-14, 00:21:01,VALID,920.787,VALID,0,VALID,99.2131,VALID,0.0849042,VALID,19.1313,VALID,149,VALID,0.918527,
2002-09-14, 00:22:01,VALID,920.766,VALID,0,VALID,99.2373,VALID,0.0849042,VALID,19.144,VALID,148,VALID,0.773884,
2002-09-14, 00:23:01,VALID,920.748,VALID,0,VALID,99.2386,VALID,0.0849042,VALID,19.1542,VALID,150,VALID,0.52484,
2002-09-14, 00:24:01,VALID,920.73,VALID,0,VALID,99.2513,VALID,0.101885,VALID,19.1542,VALID,143,VALID,0.462776,
2002-09-14, 00:25:01,VALID,920.719,VALID,0,VALID,99.264,VALID,0.0849042,VALID,19.1599,VALID,135,VALID,0.420982,
2002-09-14, 00:26:01,VALID,920.709,VALID,0,VALID,99.2602,VALID,0.0849042,VALID,19.1537,VALID,118,VALID,0.474023,
2002-09-14, 00:27:01,VALID,920.702,VALID,0,VALID,99.2615,VALID,0.101885,VALID,19.1602,VALID,123,VALID,0.49933,
2002-09-14, 00:28:01,VALID,920.703,VALID,0,VALID,99.264,VALID,0.0509425,VALID,19.1671,VALID,130,VALID,0.537684,
2002-09-14, 00:29:01,VALID,920.692,VALID,0,VALID,99.2678,VALID,0.0509425,VALID,19.1669,VALID,153,VALID,0.666735,
2002-09-14, 00:30:01,VALID,920.68,VALID,0,VALID,99.2742,VALID,0.0849042,VALID,19.1706,VALID,155,VALID,0.555804,
2002-09-14, 00:31:01,VALID,920.68,VALID,0,VALID,99.2754,VALID,0.0679233,VALID,19.1639,VALID,148,VALID,0.787054,
2002-09-14, 00:32:01,VALID,920.644,VALID,0,VALID,99.2754,VALID,-0.0339617,VALID,19.1554,VALID,146,VALID,0.742989,
2002-09-14, 00:33:00,VALID,920.627,VALID,0,VALID,99.2767,VALID,0,VALID,19.1522,VALID,136,VALID,0.401195,
2002-09-14, 00:34:00,VALID,920.609,VALID,0,VALID,99.2653,VALID,-0.0169808,VALID,19.1427,VALID,117,VALID,0.339286,
2002-09-14, 00:35:00,VALID,920.608,VALID,0,VALID,99.2742,VALID,-0.0169808,VALID,19.1263,VALID,104,VALID,0.496875,
2002-09-14, 00:36:00,VALID,920.604,VALID,0,VALID,99.2945,VALID,0,VALID,19.136,VALID,104,VALID,0.408259,
2002-09-14, 00:37:00,VALID,920.596,VALID,0,VALID,99.3072,VALID,-0.0169808,VALID,19.1397,VALID,104,VALID,0.417509,
2002-09-14, 00:38:00,VALID,920.596,VALID,0,VALID,99.3225,VALID,-0.0509425,VALID,19.1651,VALID,109,VALID,0.482319,
2002-09-14, 00:39:00,VALID,920.582,VALID,0,VALID,99.3276,VALID,-0.0339617,VALID,19.1581,VALID,113,VALID,0.289732,
2002-09-14, 00:40:00,VALID,920.57,VALID,0,VALID,99.3098,VALID,-0.0339617,VALID,19.1589,VALID,114,VALID,0.202009,
2002-09-14, 00:41:00,VALID,920.559,VALID,0,VALID,99.2971,VALID,-0.0509425,VALID,19.1258,VALID,114,VALID,0.0853365,
2002-09-14, 00:42:00,VALID,920.539,VALID,0,VALID,99.2831,VALID,-0.0509425,VALID,19.1067,VALID,114,VALID,0.183824,
2002-09-14, 00:43:00,VALID,920.526,VALID,0,VALID,99.2602,VALID,-0.0339617,VALID,19.0749,VALID,114,VALID,0.193304,
2002-09-14, 00:44:00,VALID,920.52,VALID,0,VALID,99.1928,VALID,-0.0339617,VALID,18.9293,VALID,114,VALID,0.00683594,
2002-09-14, 00:45:00,VALID,920.497,VALID,0,VALID,99.1,VALID,-0.0339617,VALID,18.8069,VALID,114,VALID,0,
2002-09-14, 00:46:00,VALID,920.486,VALID,0,VALID,99.0745,VALID,-0.0339617,VALID,18.7291,VALID,114,VALID,0,
2002-09-14, 00:47:00,VALID,920.48,VALID,0,VALID,99.1406,VALID,-0.0339617,VALID,18.6904,VALID,114,VALID,0,
2002-09-14, 00:48:00,VALID,920.501,VALID,0,VALID,99.2475,VALID,-0.0509425,VALID,18.7194,VALID,114,VALID,0,
2002-09-14, 00:49:00,VALID,920.51,VALID,0,VALID,99.2996,VALID,0,VALID,18.7619,VALID,114,VALID,0.0381696,
2002-09-14, 00:50:00,VALID,920.537,VALID,0,VALID,99.3339,VALID,-0.0509425,VALID,18.8041,VALID,114,VALID,0.0230369,
2002-09-14, 00:51:00,VALID,920.555,VALID,0,VALID,99.3428,VALID,-0.0509425,VALID,18.8362,VALID,114,VALID,0.0266544,
2002-09-14, 00:52:00,VALID,920.565,VALID,0,VALID,99.3466,VALID,-0.0509425,VALID,18.862,VALID,114,VALID,0.00200893,
2002-09-14, 00:53:00,VALID,920.58,VALID,0,VALID,99.3377,VALID,0,VALID,18.8717,VALID,114,VALID,0.207422,
2002-09-14, 00:54:00,VALID,920.593,VALID,0,VALID,99.3403,VALID,-0.0339617,VALID,18.868,VALID,114,VALID,0.364509,
2002-09-14, 00:55:00,VALID,920.599,VALID,0,VALID,99.3556,VALID,-0.0509425,VALID,18.9003,VALID,114,VALID,0.259191,
2002-09-14, 00:56:00,VALID,920.603,VALID,0,VALID,99.3708,VALID,0,VALID,18.9199,VALID,114,VALID,0.0849095,
2002-09-14, 00:57:00,VALID,920.622,VALID,0,VALID,99.3772,VALID,-0.0169808,VALID,18.9261,VALID,114,VALID,0,
2002-09-14, 00:58:00,VALID,920.624,VALID,0,VALID,99.3772,VALID,-0.0169808,VALID,18.9492,VALID,114,VALID,0,
2002-09-14, 00:59:00,VALID,920.621,VALID,0,VALID,99.3912,VALID,-0.0169808,VALID,18.9681,VALID,114,VALID,0,
2002-09-14, 01:00:00,VALID,920.601,VALID,0,VALID,99.395,VALID,-0.0339617,VALID,19.0528,VALID,114,VALID,0,
2002-09-14, 01:01:00,VALID,920.608,VALID,0,VALID,99.395,VALID,-0.0339617,VALID,19.1298,VALID,114,VALID,0,
2002-09-14, 01:02:00,VALID,920.591,VALID,0,VALID,99.4039,VALID,-0.0679233,VALID,19.2142,VALID,114,VALID,0.0763672,
2002-09-14, 01:03:00,VALID,920.582,VALID,0,VALID,99.4026,VALID,-0.0339617,VALID,19.2428,VALID,114,VALID,0.0120536,
2002-09-14, 01:04:00,VALID,920.577,VALID,0,VALID,99.4051,VALID,-0.0169808,VALID,19.2299,VALID,114,VALID,0,
2002-09-14, 01:05:00,VALID,920.563,VALID,0,VALID,99.4077,VALID,-0.0679233,VALID,19.2689,VALID,114,VALID,0.00616776,
2002-09-14, 01:06:00,VALID,920.562,VALID,0,VALID,99.4051,VALID,-0.0339617,VALID,19.3273,VALID,114,VALID,0,
2002-09-14, 01:07:00,VALID,920.572,VALID,0,VALID,99.4153,VALID,-0.0509425,VALID,19.3432,VALID,114,VALID,0,
2002-09-14, 01:08:00,VALID,920.588,VALID,0,VALID,99.409,VALID,-0.0339617,VALID,19.3723,VALID,114,VALID,0,
2002-09-14, 01:09:00,VALID,920.58,VALID,0,VALID,99.3975,VALID,-0.0679233,VALID,19.3862,VALID,114,VALID,0,
2002-09-14, 01:10:00,VALID,920.571,VALID,0,VALID,99.3823,VALID,-0.0679233,VALID,19.34,VALID,114,VALID,0,
2002-09-14, 01:11:00,VALID,920.576,VALID,0,VALID,99.3212,VALID,-0.0849042,VALID,19.2369,VALID,114,VALID,0,
2002-09-14, 01:12:00,VALID,920.568,VALID,0,VALID,99.25,VALID,-0.0509425,VALID,19.127,VALID,114,VALID,0,
2002-09-14, 01:13:00,VALID,920.558,VALID,0,VALID,99.1864,VALID,-0.0339617,VALID,19.0202,VALID,114,VALID,0.0886949,
2002-09-14, 01:14:00,VALID,920.519,VALID,0,VALID,99.1279,VALID,-0.0339617,VALID,18.9107,VALID,93,VALID,0.663857,
2002-09-14, 01:15:00,VALID,920.503,VALID,0,VALID,99.1483,VALID,-0.0169808,VALID,18.8232,VALID,79,VALID,0.908036,
2002-09-14, 01:16:00,VALID,920.485,VALID,0,VALID,99.2525,VALID,-0.0339617,VALID,18.8262,VALID,77,VALID,0.979688,
2002-09-14, 01:17:00,VALID,920.456,VALID,0,VALID,99.3454,VALID,-0.0509425,VALID,18.904,VALID,77,VALID,0.829928,
2002-09-14, 01:18:00,VALID,920.446,VALID,0,VALID,99.4077,VALID,-0.0169808,VALID,18.9715,VALID,77,VALID,0.694164,
2002-09-14, 01:19:00,VALID,920.42,VALID,0,VALID,99.4217,VALID,-0.0509425,VALID,19.0135,VALID,76,VALID,0.663393,
2002-09-14, 01:20:00,VALID,920.416,VALID,0,VALID,99.428,VALID,-0.0169808,VALID,19.0267,VALID,76,VALID,0.640234,
2002-09-14, 01:21:00,VALID,920.407,VALID,0,VALID,99.4306,VALID,-0.0169808,VALID,19.0361,VALID,73,VALID,0.824554,
2002-09-14, 01:22:00,VALID,920.419,VALID,0,VALID,99.4306,VALID,0,VALID,19.056,VALID,66,VALID,0.898208,
2002-09-14, 01:23:00,VALID,920.398,VALID,0,VALID,99.4255,VALID,0,VALID,19.0615,VALID,63,VALID,0.76028,
2002-09-14, 01:24:00,VALID,920.411,VALID,0,VALID,99.4369,VALID,-0.0339617,VALID,19.0781,VALID,63,VALID,0.733259,
2002-09-14, 01:25:00,VALID,920.419,VALID,0,VALID,99.4369,VALID,-0.0339617,VALID,19.0714,VALID,63,VALID,0.715179,
2002-09-14, 01:26:00,VALID,920.413,VALID,0,VALID,99.4318,VALID,-0.0339617,VALID,19.0913,VALID,63,VALID,0.754607,
2002-09-14, 01:27:00,VALID,920.403,VALID,0,VALID,99.4344,VALID,-0.0849042,VALID,19.0846,VALID,63,VALID,1.01746,
2002-09-14, 01:28:00,VALID,920.399,VALID,0,VALID,99.4293,VALID,-0.0169808,VALID,19.0943,VALID,50,VALID,0.967634,
2002-09-14, 01:29:00,VALID,920.389,VALID,0,VALID,99.4204,VALID,-0.0509425,VALID,19.0523,VALID,39,VALID,0.919922,
2002-09-14, 01:30:00,VALID,920.382,VALID,0,VALID,99.4153,VALID,-0.0169808,VALID,19.0456,VALID,41,VALID,0.962277,
2002-09-14, 01:31:00,VALID,920.365,VALID,0,VALID,99.4255,VALID,-0.0679233,VALID,19.0558,VALID,46,VALID,0.821691,
2002-09-14, 01:32:00,VALID,920.338,VALID,0,VALID,99.4204,VALID,-0.0509425,VALID,19.0396,VALID,46,VALID,0.575247,
2002-09-14, 01:33:00,VALID,920.332,VALID,0,VALID,99.4204,VALID,-0.0339617,VALID,19.0426,VALID,62,VALID,0.635938,
2002-09-14, 01:34:00,VALID,920.319,VALID,0,VALID,99.4306,VALID,-0.0509425,VALID,19.0553,VALID,73,VALID,0.445313,
2002-09-14, 01:35:00,VALID,920.308,VALID,0,VALID,99.428,VALID,-0.0339617,VALID,19.0555,VALID,80,VALID,0.505008,
2002-09-14, 01:36:00,VALID,920.299,VALID,0,VALID,99.4204,VALID,-0.0849042,VALID,19.0428,VALID,86,VALID,0.667279,
2002-09-14, 01:37:00,VALID,920.283,VALID,0,VALID,99.4115,VALID,-0.0169808,VALID,19.0528,VALID,77,VALID,0.773438,
2002-09-14, 01:38:00,VALID,920.286,VALID,0,VALID,99.4191,VALID,-0.0169808,VALID,19.0424,VALID,82,VALID,1.03145,
2002-09-14, 01:39:00,VALID,920.269,VALID,0,VALID,99.428,VALID,0,VALID,19.0488,VALID,87,VALID,1.02277,
2002-09-14, 01:40:00,VALID,920.267,VALID,0,VALID,99.4255,VALID,-0.0169808,VALID,19.0394,VALID,88,VALID,0.888787,
2002-09-14, 01:41:00,VALID,920.268,VALID,0,VALID,99.4395,VALID,-0.0169808,VALID,19.0394,VALID,91,VALID,0.768092,
2002-09-14, 01:42:00,VALID,920.274,VALID,0,VALID,99.4369,VALID,-0.0339617,VALID,19.0461,VALID,104,VALID,0.655804,
2002-09-14, 01:43:00,VALID,920.269,VALID,0,VALID,99.4496,VALID,-0.0509425,VALID,19.0617,VALID,122,VALID,0.578795,
2002-09-14, 01:44:00,VALID,920.268,VALID,0,VALID,99.456,VALID,-0.0169808,VALID,19.0915,VALID,125,VALID,0.565304,
2002-09-14, 01:45:00,VALID,920.266,VALID,0,VALID,99.4484,VALID,-0.0339617,VALID,19.1007,VALID,141,VALID,0.907629,
2002-09-14, 01:46:00,VALID,920.262,VALID,0,VALID,99.456,VALID,-0.0169808,VALID,19.1236,VALID,136,VALID,0.564955,
2002-09-14, 01:47:00,VALID,920.249,VALID,0,VALID,99.4636,VALID,-0.0509425,VALID,19.1425,VALID,111,VALID,0.633789,
2002-09-14, 01:48:00,VALID,920.254,VALID,0,VALID,99.4725,VALID,0,VALID,19.1551,VALID,91,VALID,0.228571,
2002-09-14, 01:49:00,VALID,920.235,VALID,0,VALID,99.4598,VALID,-0.0169808,VALID,19.1556,VALID,89,VALID,0.430836,
2002-09-14, 01:50:00,VALID,920.225,VALID,0,VALID,99.4598,VALID,-0.0169808,VALID,19.1392,VALID,92,VALID,0.531044,
2002-09-14, 01:51:00,VALID,920.223,VALID,0,VALID,99.4624,VALID,-0.0169808,VALID,19.1492,VALID,90,VALID,0.624107,
2002-09-14, 01:52:00,VALID,920.209,VALID,0,VALID,99.4636,VALID,0,VALID,19.1526,VALID,82,VALID,0.295982,
2002-09-14, 01:53:00,VALID,920.212,VALID,0,VALID,99.4522,VALID,-0.0339617,VALID,19.1459,VALID,80,VALID,0.36278,
2002-09-14, 01:54:00,VALID,920.219,VALID,0,VALID,99.4611,VALID,-0.0169808,VALID,19.1397,VALID,84,VALID,0.287454,
2002-09-14, 01:55:00,VALID,920.231,VALID,0,VALID,99.4649,VALID,-0.0169808,VALID,19.1325,VALID,126,VALID,0.35558,
2002-09-14, 01:56:00,VALID,920.222,VALID,0,VALID,99.4611,VALID,-0.0509425,VALID,19.1362,VALID,138,VALID,0.065625,
2002-09-14, 01:57:00,VALID,920.218,VALID,0,VALID,99.4458,VALID,-0.0509425,VALID,19.1261,VALID,138,VALID,0.0714286,
2002-09-14, 01:58:00,VALID,920.213,VALID,0,VALID,99.4522,VALID,-0.0339617,VALID,19.1037,VALID,138,VALID,0.000459559,
2002-09-14, 01:59:00,VALID,920.192,VALID,0,VALID,99.4522,VALID,0,VALID,19.0906,VALID,138,VALID,0,
2002-09-14, 02:00:00,VALID,920.181,VALID,0,VALID,99.4496,VALID,-0.0169808,VALID,19.0878,VALID,138,VALID,0,
2002-09-14, 02:01:00,VALID,920.163,VALID,0,VALID,99.4535,VALID,-0.0339617,VALID,19.0779,VALID,138,VALID,0,
2002-09-14, 02:02:00,VALID,920.143,VALID,0,VALID,99.4522,VALID,0,VALID,19.0714,VALID,138,VALID,0,
2002-09-14, 02:03:00,VALID,920.139,VALID,0,VALID,99.4395,VALID,0.0169808,VALID,19.055,VALID,138,VALID,0,
2002-09-14, 02:04:00,VALID,920.125,VALID,0,VALID,99.442,VALID,0,VALID,19.0391,VALID,133,VALID,0,
2002-09-14, 02:05:00,VALID,920.101,VALID,0,VALID,99.4509,VALID,0,VALID,19.0131,VALID,87,VALID,0.555273,
2002-09-14, 02:06:00,VALID,920.069,VALID,0,VALID,99.4369,VALID,0,VALID,18.9875,VALID,75,VALID,0.758705,
2002-09-14, 02:07:00,VALID,920.048,VALID,0,VALID,99.4382,VALID,0,VALID,18.9489,VALID,74,VALID,0.741268,
2002-09-14, 02:08:00,VALID,920.038,VALID,0,VALID,99.4344,VALID,0,VALID,18.9067,VALID,73,VALID,0.586143,
2002-09-14, 02:09:00,VALID,920.01,VALID,0,VALID,99.4255,VALID,0.0169808,VALID,18.8618,VALID,73,VALID,0.674554,
2002-09-14, 02:10:00,VALID,920.003,VALID,0,VALID,99.4242,VALID,0,VALID,18.8357,VALID,77,VALID,0.634152,
2002-09-14, 02:11:00,VALID,920.003,VALID,0,VALID,99.4268,VALID,0,VALID,18.8163,VALID,86,VALID,0.763221,
2002-09-14, 02:12:00,VALID,919.991,VALID,0,VALID,99.4395,VALID,-0.0169808,VALID,18.8198,VALID,92,VALID,0.737592,
2002-09-14, 02:13:00,VALID,919.996,VALID,0,VALID,99.4573,VALID,0,VALID,18.8161,VALID,95,VALID,0.609375,
2002-09-14, 02:14:00,VALID,920.007,VALID,0,VALID,99.4738,VALID,0,VALID,18.8198,VALID,97,VALID,0.583203,
2002-09-14, 02:15:00,VALID,920.029,VALID,0,VALID,99.484,VALID,-0.0339617,VALID,18.8391,VALID,97,VALID,0.54308,
2002-09-14, 02:16:00,VALID,920.045,VALID,0,VALID,99.4827,VALID,0,VALID,18.8451,VALID,97,VALID,0.512408,
2002-09-14, 02:17:00,VALID,920.086,VALID,0,VALID,99.4878,VALID,0,VALID,18.8424,VALID,97,VALID,0.339021,
2002-09-14, 02:18:00,VALID,920.114,VALID,0,VALID,99.4814,VALID,0,VALID,18.8138,VALID,105,VALID,0.325223,
2002-09-14, 02:19:00,VALID,920.16,VALID,0,VALID,99.4891,VALID,0,VALID,18.7808,VALID,114,VALID,0.669643,
2002-09-14, 02:20:00,VALID,920.187,VALID,0,VALID,99.5005,VALID,0,VALID,18.7967,VALID,119,VALID,0.701923,
2002-09-14, 02:21:00,VALID,920.219,VALID,0,VALID,99.5043,VALID,0,VALID,18.8158,VALID,121,VALID,0.727482,
2002-09-14, 02:22:00,VALID,920.238,VALID,0,VALID,99.5221,VALID,0,VALID,18.8518,VALID,123,VALID,0.861384,
2002-09-14, 02:23:00,VALID,920.236,VALID,0,VALID,99.5234,VALID,0,VALID,18.8876,VALID,120,VALID,0.87168,
2002-09-14, 02:24:00,VALID,920.228,VALID,0,VALID,99.5298,VALID,0,VALID,18.9137,VALID,115,VALID,0.727902,
2002-09-14, 02:25:00,VALID,920.222,VALID,0,VALID,99.5247,VALID,-0.0169808,VALID,18.9263,VALID,115,VALID,0.922564,
2002-09-14, 02:26:00,VALID,920.199,VALID,0,VALID,99.5399,VALID,0.0169808,VALID,18.946,VALID,107,VALID,0.749383,
2002-09-14, 02:27:00,VALID,920.178,VALID,0,VALID,99.5221,VALID,0,VALID,18.9457,VALID,111,VALID,0.6125,
2002-09-14, 02:28:00,VALID,920.157,VALID,0,VALID,99.5298,VALID,0,VALID,18.9388,VALID,119,VALID,0.794643,
2002-09-14, 02:29:00,VALID,920.123,VALID,0,VALID,99.5374,VALID,0,VALID,18.9455,VALID,126,VALID,0.878005,
2002-09-14, 02:30:00,VALID,920.099,VALID,0,VALID,99.5285,VALID,-0.0679233,VALID,18.9517,VALID,126,VALID,0.659467,
2002-09-14, 02:31:00,VALID,920.071,VALID,0,VALID,99.5374,VALID,-0.0169808,VALID,18.9621,VALID,115,VALID,1.10536,
2002-09-14, 02:32:00,VALID,920.056,VALID,0,VALID,99.5247,VALID,0,VALID,18.9686,VALID,122,VALID,1.11777,
2002-09-14, 02:33:00,VALID,920.039,VALID,0,VALID,99.5298,VALID,0,VALID,18.9902,VALID,125,VALID,1.15871,
2002-09-14, 02:34:00,VALID,920.011,VALID,0,VALID,99.5348,VALID,-0.0169808,VALID,19.0103,VALID,118,VALID,1.34789,
2002-09-14, 02:35:00,VALID,920.012,VALID,0,VALID,99.5399,VALID,-0.0169808,VALID,19.0138,VALID,124,VALID,0.996094,
2002-09-14, 02:36:00,VALID,919.996,VALID,0,VALID,99.5387,VALID,0,VALID,19.0202,VALID,131,VALID,0.840848,
2002-09-14, 02:37:00,VALID,920.006,VALID,0,VALID,99.5323,VALID,0,VALID,18.9909,VALID,135,VALID,0.623214,
2002-09-14, 02:38:00,VALID,920.015,VALID,0,VALID,99.5336,VALID,0,VALID,18.9681,VALID,129,VALID,0.566106,
2002-09-14, 02:39:00,VALID,920.011,VALID,0,VALID,99.5323,VALID,0.0169808,VALID,18.9619,VALID,129,VALID,0.534697,
2002-09-14, 02:40:00,VALID,920.004,VALID,0,VALID,99.5259,VALID,0,VALID,18.9522,VALID,135,VALID,0.233705,
2002-09-14, 02:41:00,VALID,919.994,VALID,0,VALID,99.5336,VALID,0,VALID,18.9363,VALID,130,VALID,0.138086,
2002-09-14, 02:42:00,VALID,919.975,VALID,0,VALID,99.5158,VALID,0,VALID,18.9037,VALID,130,VALID,0.0774554,
2002-09-14, 02:43:00,VALID,919.954,VALID,0,VALID,99.5272,VALID,-0.0339617,VALID,18.8684,VALID,18,VALID,0.418888,
2002-09-14, 02:44:00,VALID,919.943,VALID,0,VALID,99.5272,VALID,0,VALID,18.8387,VALID,327,VALID,0.579359,
2002-09-14, 02:45:00,VALID,919.931,VALID,0,VALID,99.5158,VALID,0,VALID,18.8585,VALID,287,VALID,0.639732,
2002-09-14, 02:46:00,VALID,919.922,VALID,0,VALID,99.5234,VALID,0,VALID,18.8551,VALID,279,VALID,0.721875,
2002-09-14, 02:47:00,VALID,919.909,VALID,0,VALID,99.5259,VALID,0,VALID,18.8684,VALID,279,VALID,0.337941,
2002-09-14, 02:48:00,VALID,919.898,VALID,0,VALID,99.5158,VALID,-0.0169808,VALID,18.8451,VALID,279,VALID,0.0078125,
2002-09-14, 02:49:00,VALID,919.878,VALID,0,VALID,99.5209,VALID,0,VALID,18.8389,VALID,279,VALID,0,
2002-09-14, 02:50:00,VALID,919.868,VALID,0,VALID,99.5158,VALID,-0.0509425,VALID,18.8329,VALID,279,VALID,0,
2002-09-14, 02:51:00,VALID,919.846,VALID,0,VALID,99.5247,VALID,0,VALID,18.8006,VALID,279,VALID,0,
2002-09-14, 02:52:00,VALID,919.821,VALID,0,VALID,99.5234,VALID,-0.0339617,VALID,18.7552,VALID,279,VALID,0,
2002-09-14, 02:53:00,VALID,919.801,VALID,0,VALID,99.5247,VALID,-0.0169808,VALID,18.7393,VALID,279,VALID,0,
2002-09-14, 02:54:00,VALID,919.77,VALID,0,VALID,99.5056,VALID,0,VALID,18.7331,VALID,279,VALID,0,
2002-09-14, 02:55:00,VALID,919.757,VALID,0,VALID,99.517,VALID,-0.0169808,VALID,18.7231,VALID,279,VALID,0,
2002-09-14, 02:56:00,VALID,919.739,VALID,0,VALID,99.517,VALID,-0.0339617,VALID,18.665,VALID,279,VALID,0,
2002-09-14, 02:57:00,VALID,919.725,VALID,0,VALID,99.5043,VALID,0,VALID,18.5942,VALID,328,VALID,0.363511,
2002-09-14, 02:58:00,VALID,919.709,VALID,0,VALID,99.4967,VALID,0,VALID,18.5257,VALID,24,VALID,0.793527,
2002-09-14, 02:59:00,VALID,919.693,VALID,0,VALID,99.4903,VALID,0,VALID,18.4678,VALID,25,VALID,0.806836,
2002-09-14, 03:00:00,VALID,919.673,VALID,0,VALID,99.5196,VALID,-0.0169808,VALID,18.5425,VALID,29,VALID,0.912946,
2002-09-14, 03:01:00,VALID,919.668,VALID,0,VALID,99.5361,VALID,-0.0169808,VALID,18.6108,VALID,28,VALID,0.75046,
2002-09-14, 03:02:00,VALID,919.658,VALID,0,VALID,99.5387,VALID,-0.0169808,VALID,18.594,VALID,24,VALID,0.511513,
2002-09-14, 03:03:00,VALID,919.638,VALID,0,VALID,99.5412,VALID,0,VALID,18.5806,VALID,24,VALID,0.275446,
2002-09-14, 03:04:00,VALID,919.635,VALID,0,VALID,99.5527,VALID,0.0169808,VALID,18.5808,VALID,24,VALID,0.114286,
2002-09-14, 03:05:00,VALID,919.618,VALID,0,VALID,99.5514,VALID,-0.0169808,VALID,18.5811,VALID,24,VALID,0,
2002-09-14, 03:06:00,VALID,919.589,VALID,0,VALID,99.5552,VALID,-0.0169808,VALID,18.5778,VALID,24,VALID,0,
2002-09-14, 03:07:00,VALID,919.584,VALID,0,VALID,99.5654,VALID,0,VALID,18.5811,VALID,24,VALID,0,
2002-09-14, 03:08:00,VALID,919.566,VALID,0,VALID,99.5704,VALID,0,VALID,18.5972,VALID,24,VALID,0,
2002-09-14, 03:09:00,VALID,919.549,VALID,0,VALID,99.5794,VALID,0.0169808,VALID,18.6129,VALID,45,VALID,0.109375,
2002-09-14, 03:10:00,VALID,919.532,VALID,0,VALID,99.5666,VALID,0,VALID,18.6101,VALID,102,VALID,0.225873,
2002-09-14, 03:11:00,VALID,919.535,VALID,0,VALID,99.5704,VALID,0,VALID,18.5912,VALID,135,VALID,0.386308,
2002-09-14, 03:12:00,VALID,919.527,VALID,0,VALID,99.5704,VALID,-0.0169808,VALID,18.5781,VALID,135,VALID,0.204241,
2002-09-14, 03:13:00,VALID,919.521,VALID,0,VALID,99.573,VALID,-0.0169808,VALID,18.5781,VALID,135,VALID,0.20067,
2002-09-14, 03:14:00,VALID,919.518,VALID,0,VALID,99.5704,VALID,0,VALID,18.5386,VALID,135,VALID,0.230769,
2002-09-14, 03:15:00,VALID,919.514,VALID,0,VALID,99.5743,VALID,0,VALID,18.5393,VALID,135,VALID,0.233226,
2002-09-14, 03:16:00,VALID,919.501,VALID,0,VALID,99.5794,VALID,0.0169808,VALID,18.5162,VALID,135,VALID,0.0886161,
2002-09-14, 03:17:00,VALID,919.495,VALID,0,VALID,99.5743,VALID,0,VALID,18.5006,VALID,149,VALID,0.345508,
2002-09-14, 03:18:00,VALID,919.479,VALID,0,VALID,99.5666,VALID,-0.0169808,VALID,18.4814,VALID,153,VALID,0.446429,
2002-09-14, 03:19:00,VALID,919.478,VALID,0,VALID,99.5692,VALID,0,VALID,18.475,VALID,156,VALID,0.492188,
2002-09-14, 03:20:00,VALID,919.469,VALID,0,VALID,99.5768,VALID,0,VALID,18.4745,VALID,159,VALID,0.438939,
2002-09-14, 03:21:00,VALID,919.47,VALID,0,VALID,99.5781,VALID,0,VALID,18.478,VALID,162,VALID,0.600893,
2002-09-14, 03:22:00,VALID,919.477,VALID,0,VALID,99.5781,VALID,0,VALID,18.504,VALID,173,VALID,0.696205,
2002-09-14, 03:23:00,VALID,919.48,VALID,0,VALID,99.5794,VALID,0,VALID,18.5038,VALID,177,VALID,0.752003,
2002-09-14, 03:24:00,VALID,919.475,VALID,0,VALID,99.5844,VALID,-0.0169808,VALID,18.5006,VALID,181,VALID,0.586397,
2002-09-14, 03:25:00,VALID,919.46,VALID,0,VALID,99.5895,VALID,0,VALID,18.5169,VALID,185,VALID,0.41808,
2002-09-14, 03:26:00,VALID,919.455,VALID,0,VALID,99.5933,VALID,-0.0169808,VALID,18.5197,VALID,182,VALID,0.34043,
2002-09-14, 03:27:00,VALID,919.453,VALID,0,VALID,99.5921,VALID,-0.0169808,VALID,18.5425,VALID,188,VALID,0.380804,
2002-09-14, 03:28:00,VALID,919.445,VALID,0,VALID,99.5921,VALID,0,VALID,18.5688,VALID,183,VALID,0.546186,
2002-09-14, 03:29:00,VALID,919.442,VALID,0,VALID,99.6073,VALID,-0.0509425,VALID,18.5882,VALID,177,VALID,0.688734,
2002-09-14, 03:30:00,VALID,919.467,VALID,0,VALID,99.6022,VALID,0,VALID,18.5981,VALID,178,VALID,0.635714,
2002-09-14, 03:31:00,VALID,919.465,VALID,0,VALID,99.5946,VALID,-0.0509425,VALID,18.5914,VALID,174,VALID,0.46875,
2002-09-14, 03:32:00,VALID,919.457,VALID,0,VALID,99.5819,VALID,0,VALID,18.5587,VALID,161,VALID,0.457532,
2002-09-14, 03:33:00,VALID,919.47,VALID,0,VALID,99.5679,VALID,0,VALID,18.5331,VALID,170,VALID,0.610524,
2002-09-14, 03:34:00,VALID,919.473,VALID,0,VALID,99.5717,VALID,-0.0169808,VALID,18.5197,VALID,172,VALID,0.727009,
2002-09-14, 03:35:00,VALID,919.47,VALID,0,VALID,99.5781,VALID,0,VALID,18.5202,VALID,169,VALID,0.914648,